Location: Waco, TX
(31.5480°N, 97.1670°W)
Time: 02:33:39
(UTC-06:00)

ISS - Pass Details

Date: 13 November 2017
Orbit: 402 x 407 km, 51.6° (Epoch: 19 November)

Event Time Altitude Azimuth Distance (km) Brightness Sun altitude
Rises 08:57:18 0° 292° (WNW) 2,309 -0.6 21.7°
Reaches altitude 10° 09:00:12 10° 264° (W) 1,447 -1.3 22.2°
Maximum altitude 09:01:49 13° 234° (SW) 1,271 -1.4 22.4°
Drops below altitude 10° 09:03:25 10° 204° (SSW) 1,443 -0.7 22.7°
Sets 09:06:19 0° 175° (S) 2,298 0.7 23.1°
